Location: Radomski Observatory
(40.2854°N, 79.5145°W)
Time: 07:34:15
(UTC-05:00)

Daily predictions for brighter satellites

Satellite Brightness Start Highest point End
(mag) Time Altitude Azimuth Time Altitude Azimuth Time Altitude Azimuth
Cosmos 2360 Rocket 2.8 18:22:24 10° N 18:27:35 35° ENE 18:32:45 10° SE
Cosmos 1980 Rocket 4.4 18:23:15 10° NW 18:28:14 32° WSW 18:33:13 10° SSW
Cosmos 676 Rocket 4.1 18:25:39 10° S 18:30:41 55° ESE 18:35:47 10° NNE
DNEPR-1 R/B 3.5 18:27:24 10° NNW 18:31:39 88° WSW 18:35:56 10° SSE
Meteor 1-11 Rocket 4.3 18:33:16 10° SSE 18:38:28 36° E 18:43:47 10° NNE
Nadezhda 1 Rocket 4.1 18:32:29 10° N 18:38:36 84° W 18:44:39 10° S
Cosmos 1461 3.2 18:40:22 10° NW 18:44:21 68° WSW 18:48:27 10° SSE
DELTA 2 R/B (1) 3.8 18:39:21 10° W 18:44:58 70° SSW 18:50:32 10° ESE
Cosmos 1140 Rocket 3.8 18:40:57 10° S 18:45:48 44° ESE 18:50:42 10° NNE
Cosmos 1602 4.1 18:45:20 10° SSE 18:49:00 43° E 18:52:43 10° NNE
Resurs 01 Rocket 2.5 18:45:44 10° SE 18:49:27 27° ENE 18:53:10 10° N
Cosmos 1300 Rocket 3.9 18:46:20 10° SSE 18:50:30 44° E 18:54:44 10° NNE
Cosmos 2292 Rocket 4.3 18:48:23 10° S 18:53:27 80° E 19:00:22 10° N
Cosmos 614 Rocket 4.4 18:49:00 10° S 18:53:41 39° ESE 18:58:23 10° NE
Abrixas rocket 3.9 18:53:02 10° S 18:55:29 19° SE 18:56:52 15° ESE
Cosmos 1833 4.2 18:49:59 10° SSW 18:55:39 73° ESE 19:01:19 10° NNE
COSMO-SKYMED 1 3.8 18:51:40 10° N 18:55:50 46° WNW 18:59:59 10° SW
ALOS 2.6 18:52:55 10° SE 18:57:20 44° ENE 19:01:47 10° N
Cosmos 2181 Rocket 4.0 18:52:24 10° N 18:58:36 61° E 19:04:51 10° SSE
Spot 2 Rocket 4.0 18:57:08 10° SE 19:01:47 38° ENE 19:06:27 10° N
Cosmos 2333 Rocket 3.8 18:58:54 10° N 19:02:27 16° NE 19:04:11 15° ENE
SL-16 R/B 3.4 18:58:57 10° NW 19:04:22 46° WSW 19:09:44 10° S
FREGAT/IRIS 2.6 19:01:55 10° SSE 19:04:59 86° ENE 19:08:05 10° N
Helios 1A 4.3 19:04:17 18° E 19:05:33 21° ENE 19:08:40 10° NNE
Cosmos 1340 2.6 19:03:12 10° N 19:07:01 87° E 19:10:47 10° S
Resurs 1-3 4.2 19:03:18 10° SE 19:07:16 35° ENE 19:11:15 10° N
Cosmos 1709 Rocket 4.1 19:06:37 10° S 19:12:51 83° W 19:19:03 10° N
Cosmos 1850 Rocket 4.2 19:07:49 10° S 19:12:54 50° ESE 19:18:04 10° NNE
Cosmos 2074 Rocket 4.3 19:07:13 10° SSE 19:13:01 42° E 19:18:51 10° NNE
Cosmos 2184 Rocket 4.3 19:10:04 10° SSE 19:15:58 43° E 19:21:50 10° NNE
Envisat 4.4 19:18:30 19° ENE 19:18:30 19° ENE 19:21:48 10° NNE
Helios 1B rocket 3.4 19:18:13 26° E 19:18:34 26° E 19:22:03 10° SSE
FengYun 1-2 T 4.1 19:13:57 10° SSE 19:19:24 72° ENE 19:24:53 10° N
NOSS 8 (H) 4.4 19:16:44 10° SSW 19:20:04 57° ESE 19:21:51 25° NE
Cosmos 1954 Rocket 4.4 19:15:22 10° SSW 19:20:31 65° WNW 19:25:44 10° NNE
Cosmos 2322 Rocket 4.1 19:15:44 10° NW 19:20:39 32° WSW 19:25:34 10° SSW
HJ-1C 3.2 19:18:45 10° SSE 19:22:07 82° E 19:25:30 10° N
Okean 2 4.5 19:18:54 10° NNE 19:22:00 25° ENE 19:22:00 25° ENE
SJ-6B 3.4 19:19:31 10° S 19:23:29 60° W 19:27:23 10° NNW
Tiangong 2 3.2 19:22:09 10° W 19:24:36 21° SSW 19:26:31 13° SSE
Okean 1 Rocket 3.0 19:20:47 10° S 19:25:17 83° E 19:29:47 10° N
Genesis I 3.4 19:23:00 10° NNW 19:26:51 50° NE 19:28:05 35° ESE
FENGYUN 3A 3.6 19:21:48 10° SSE 19:27:13 85° ENE 19:32:40 10° NNW
Meteor 1-19 Rocket 4.3 19:23:12 10° N 19:28:54 84° W 19:34:41 10° S
SAR-Lupe-4 3.9 19:30:26 42° E 19:30:43 42° ENE 19:34:07 10° N
Gbstr 26 Del rocket 2.8 19:31:36 10° WSW 19:35:24 70° NW 19:36:53 34° NE
Cosmos 2322 3.9 19:31:29 10° NNW 19:37:12 73° WSW 19:42:52 10° SSE
Cosmos 1238 Rocket 3.7 19:35:16 10° NNW 19:38:02 36° W 19:40:48 10° SSW
Cosmos 2285 Rocket 4.1 19:38:19 10° N 19:44:39 54° ENE 19:47:50 29° SE
CZ-2D R/B 3.1 19:43:32 41° SSE 19:44:44 72° ENE 19:48:32 10° N
Cosmos 2154 Rocket 4.4 19:39:12 10° SSE 19:44:58 38° E 19:50:44 10° NNE
GEOS 3 Rocket 3.7 19:39:53 10° NNE 19:45:08 80° NW 19:50:25 10° SW
Cosmos 1025 Rocket 2.9 19:41:22 10° N 19:45:45 73° E 19:48:41 21° SSE
GPS 2-04 Rocket1 3.7 19:42:15 10° SW 19:46:10 34° SSE 19:46:29 34° SSE
Cosmos 405 Rocket 4.4 19:43:10 10° N 19:45:01 22° NNE 19:45:01 22° NNE
H-2A R/B 2.9 19:46:25 11° S 19:50:00 70° WSW 19:53:45 10° NNW
Meteor 2-13 Rocket 4.4 19:44:57 10° SSE 19:50:48 54° E 19:56:42 10° NNE
Cosmos 1536 3.4 19:47:02 10° SSW 19:50:58 57° W 19:54:54 10° N
Okean 1-7 Rocket 3.8 19:47:26 10° NNW 19:51:58 71° W 19:56:24 10° S
COSMOS 2428 2.6 19:46:52 10° NNW 19:52:36 79° ENE 19:55:38 29° SSE
Meteor 1-23 Rocket 4.2 19:46:50 10° N 19:52:40 90° ENE 19:58:25 10° S
Cosmos 2237 4.2 19:47:06 10° NNW 19:52:52 82° WSW 19:57:28 16° SSE
Cosmos 2333 4.1 19:48:15 10° NNW 19:53:58 71° ENE 19:56:21 36° SE
Meteor 2-4 Rocket 3.9 19:49:28 10° NNW 19:54:59 70° W 20:00:20 10° S
Cosmos 2237 Rocket 3.2 19:51:38 10° N 19:55:53 29° NE 19:55:53 29° NE
NOSS 0 Rocket 4.0 20:02:14 10° NNW 20:08:13 51° ENE 20:08:24 51° ENE
Cosmos 2360 Rocket 3.9 20:06:31 10° NW 20:11:29 32° WSW 20:16:26 10° SSW
Cosmos 2219 3.6 20:06:49 10° SW 20:12:30 63° WNW 20:18:14 10° NNE
Cosmos 2219 Rocket 2.1 20:08:02 10° NNW 20:13:35 65° ENE 20:13:35 65° ENE
Resurs 01 Rocket 3.7 20:22:08 10° SSW 20:25:51 26° W 20:29:34 10° NW
SL-16 R/B 4.1 20:25:24 10° N 20:27:20 18° NNE 20:27:20 18° NNE
ATLAS CENTAUR R/B 4.3 20:29:55 10° SW 20:30:47 14° SW 20:30:47 14° SW
BREEZE-M DEB (TANK) 4.1 20:29:56 10° WNW 20:33:53 85° SW 20:35:01 65° SE
Cosmos 2333 Rocket 2.6 20:41:41 10° NNW 20:46:14 57° NNW 20:46:14 57° NNW
USA 229 DEB 4.1 20:46:26 10° NW 20:53:28 61° WSW 20:54:32 55° SSW
USA 229 4.1 20:46:32 10° NW 20:53:34 61° WSW 20:54:36 56° SSW
Envisat 4.3 20:58:42 36° NW 20:58:42 36° NW 21:01:55 10° NNW
NOSS 3-1 (A) 4.3 20:58:48 10° NNW 21:04:58 56° N 21:04:58 56° N
ATLAS 2AS CENTAUR R/B 4.4 21:05:06 10° NNW 21:10:18 26° NNE 21:10:18 26° NNE
NOSS 3-1 (C) 4.3 21:18:16 10° NW 21:24:23 62° NW 21:24:23 62° NW
Cosmos 2237 Rocket 4.3 21:35:27 10° NW 21:37:44 23° NW 21:37:44 23° NW
